Location: Bothwell
(42.3833°S, 147.0000°E)
Time: 04:29:30
(UTC+11:00)

DOVE 4 - Pass Details

Date: 30 September 2022
Orbit: 587 x 795 km, 97.8° (Epoch: 30 November)

Event Time Altitude Azimuth Distance (km) Brightness Sun altitude
Exits shadow 21:24:25 13° 151° (SSE) 2,211 ? -32.4°
Drops below altitude 10° 21:25:12 10° 158° (SSE) 2,395 ? -32.5°
Sets 21:28:19 0° 177° (S) 3,340 ? -32.9°
